[[{"header":{"parameterUnit":"m.s-1","parameterCategory":1,"la1":30.2991,"la2":30.254,"lo1":-89.0895,"lo2":-89.0444,"dy":0.0017,"dx":0.0017,"nx":28,"ny":28,"refTime":"2024-12-07T09:00:00:Z","depth":0,"parameterNumber":2,"parameterNumberName":"U-component_of_WINDS"},"data":[0,0,0,0,0,0,0,0,0,0,0,0,0,0,0,0,0,0,0,0,0,0,0,0,0,0,0,0,0,0,0,0,0,0,0,0,0,0,0,0,0,0,0,0,0,0,0,0,0,0,0,0,0,0,0,0,0,0,-2.271,-2.2711,0,-2.2741,-2.2741,-2.2741,-2.2632,-2.2629,-2.2625,-2.2622,-2.2655,-2.2659,-2.2663,0,0,0,0,0,0,0,0,0,0,0,0,0,-2.2559,-2.2562,-2.271,-2.2711,-2.2711,-2.274,-2.2741,-2.2741,-2.2633,-2.2629,-2.2625,-2.2621,-2.2654,-2.2658,-2.2663,0,0,0,0,0,0,0,0,0,0,0,0,0,-2.2611,-2.2563,-2.271,-2.266,-2.2656,-2.274,-2.2741,-2.2741,-2.2633,-2.2628,-2.2624,-2.2619,-2.2652,-2.2658,-2.2664,-2.2798,0,0,-2.2682,-2.2684,0,0,0,0,0,0,0,0,-2.2608,-2.2616,-2.2667,-2.2664,-2.2659,-2.2677,-2.2699,-2.276,-2.2635,-2.2642,-2.2622,-2.2617,-2.2667,-2.2671,-2.2687,-2.28,-2.2801,-2.2682,-2.2686,-2.2688,-2.269,0,0,0,0,0,0,0,-2.2604,-2.2614,-2.2722,-2.2668,-2.2663,-2.2636,-2.2638,-2.271,-2.2682,-2.2641,-2.2633,-2.2638,-2.2663,-2.2682,-2.2687,-2.2801,-2.2682,-2.2687,-2.2691,-2.2693,-2.3025,-2.303,0,0,0,0,0,0,-2.2607,-2.2612,-2.2721,-2.2723,-2.2621,-2.2643,-2.2645,-2.2677,-2.268,-2.2676,-2.2642,-2.2633,-2.2674,-2.2681,-2.2688,-2.2846,-2.2688,-2.2694,-2.2697,-2.3019,-2.3026,-2.3032,0,0,0,0,0,0,-2.2604,-2.2618,-2.272,-2.2665,-2.2676,-2.2651,-2.2687,-2.268,-2.2698,-2.2681,-2.2676,-2.2667,-2.2671,-2.268,-2.2771,-2.2846,-2.2696,-2.2702,-2.3013,-2.3021,-2.3029,-2.3164,0,0,0,0,0,0,-2.26,-2.2618,-2.2669,-2.2667,-2.268,-2.2803,-2.2692,-2.2684,-2.2709,-2.2697,-2.2703,-2.2699,-2.2668,-2.2763,-2.2777,-2.2851,-2.2706,-2.3007,-2.3017,-2.3026,-2.3153,-2.3175,-2.3195,0,0,0,0,0,-2.2595,-2.2706,-2.2672,-2.2686,-2.2743,-2.2808,-2.2815,-2.2776,-2.2715,-2.2766,-2.2755,-2.2699,-2.2835,-2.2773,-2.2788,-2.2865,-2.3002,-2.3014,-2.3025,-2.3143,-2.3171,-2.3194,0,0,0,0,0,0,-2.2718,-2.2705,-2.2667,-2.278,-2.2796,-2.2789,-2.2853,-2.2807,-2.2841,-2.2828,-2.2778,-2.2781,-2.2882,-2.2882,-2.2814,-2.2995,-2.2908,-2.2923,-2.2992,-2.3018,-2.3039,-2.3038,-2.2711,0,0,0,0,0,-2.2757,-2.2811,-2.2797,-2.2898,-2.2908,-2.2879,-2.2906,-2.2874,-2.2889,-2.2895,-2.2891,-2.2907,-2.2953,-2.2985,-2.3027,-2.3151,-2.3151,-2.3211,-2.3232,-2.3249,-2.3264,-2.333,-2.3357,-2.3071,-2.3071,-2.307,0,0,-2.2841,-2.284,-2.2878,-2.2923,-2.2931,-2.2988,-2.2886,-2.295,-2.2992,-2.2905,-2.2992,-2.2989,-2.3003,-2.3112,-2.316,-2.3116,-2.3342,-2.3264,-2.3278,-2.3284,-2.3345,-2.3372,-2.3396,-2.3079,-2.3077,-2.3076,0,0,-2.3023,-2.3027,-2.3112,-2.3122,-2.3136,-2.3116,-2.3136,-2.3136,-2.3131,-2.3216,-2.3152,-2.3201,-2.3281,-2.3295,-2.3312,-2.3497,-2.3447,-2.3511,-2.3623,-2.3688,-2.371,-2.373,-2.3797,-2.3822,-2.3525,-2.3526,-2.3526,0,-2.3125,-2.3208,-2.3162,-2.3231,-2.3253,-2.3175,-2.3261,-2.3273,-2.33,-2.3317,-2.3266,-2.3365,-2.337,-2.3481,-2.3526,-2.3542,-2.3564,-2.3512,-2.3711,-2.373,-2.3748,-2.3812,-2.3837,-2.3534,-2.3533,-2.3532,-2.3531,0,-2.3334,-2.3393,-2.346,-2.3487,-2.3516,-2.3593,-2.3559,-2.3593,-2.3558,-2.3544,-2.3631,-2.3633,-2.3674,-2.3697,-2.3664,-2.3804,-2.3776,-2.3719,-2.3631,-2.3784,-2.3843,-2.3867,-2.3545,-2.3542,-2.354,-2.3538,0,0,-2.3598,-2.3596,-2.3622,-2.3633,-2.3641,-2.3686,-2.3759,-2.3798,-2.3829,-2.3849,-2.391,-2.3979,-2.3926,-2.3946,-2.3913,-2.3969,-2.4117,-2.3905,-2.3904,-2.3946,-2.4271,-2.4317,-2.4346,-2.4082,-2.4086,-2.409,-2.4271,0,-2.3778,-2.3903,-2.3862,-2.399,-2.4043,-2.3968,-2.4032,-2.4044,-2.4031,-2.4075,-2.406,-2.4111,-2.4036,-2.4047,-2.41,-2.4088,-2.4182,-2.4074,-2.414,-2.4143,-2.4141,-2.4376,-2.4424,-2.4595,-2.4293,-2.4297,-2.43,0,-2.4006,-2.4034,-2.4167,-2.4165,-2.4186,-2.4244,-2.4276,-2.4318,-2.433,-2.4316,-2.4338,-2.4293,-2.4364,-2.4273,-2.4371,-2.4299,-2.4322,-2.432,-2.4326,-2.4333,-2.4233,-2.4392,-2.4648,-2.4675,-2.4336,-2.4333,-2.433,0,-2.4187,-2.4258,-2.4347,-2.4358,-2.4358,-2.4401,-2.4403,-2.4409,-2.4435,-2.4462,-2.4479,-2.4514,-2.4535,-2.4563,-2.4529,-2.4465,-2.4633,-2.4538,-2.4625,-2.4626,-2.4666,-2.4665,-2.4933,-2.4677,-2.4677,-2.4676,-2.4676,0,-2.4394,-2.4479,-2.4428,-2.4483,-2.4575,-2.4527,-2.4619,-2.4613,-2.4619,-2.4671,-2.4607,-2.4658,-2.4608,-2.4653,-2.4626,-2.4713,-2.4722,-2.4713,-2.4706,-2.4721,-2.4723,-2.4738,-2.4727,-2.4683,-2.4682,-2.468,-2.4679,0,-2.4614,-2.4583,-2.4675,-2.4666,-2.4666,-2.4735,-2.4727,-2.4778,-2.4759,-2.4826,-2.4839,-2.481,-2.486,-2.4828,-2.4879,-2.486,-2.4974,-2.4948,-2.497,-2.4964,-2.5053,-2.5046,-2.5343,-2.538,-2.5099,-2.5102,-2.5104,0,-2.475,-2.4813,-2.4811,-2.4841,-2.4847,-2.4896,-2.4922,-2.4875,-2.4905,-2.4921,-2.497,-2.5014,-2.5048,-2.5132,-2.5116,-2.5154,-2.5131,-2.5232,-2.5137,-2.515,-2.5135,-2.5133,-2.5139,-2.5253,-2.5256,-2.5259,-2.5261,0,-2.4995,-2.4976,-2.5015,-2.505,-2.5082,-2.5106,-2.5125,-2.5154,-2.5107,-2.5143,-2.5193,-2.5219,-2.527,-2.5316,-2.5347,-2.5349,-2.5299,-2.529,-2.5313,-2.5331,-2.5342,-2.5339,-2.5026,-2.5285,-2.5282,-2.5281,-2.5279,-2.5278,-2.5179,-2.5231,-2.5238,-2.5283,-2.5292,-2.5312,-2.5359,-2.5345,-2.5386,-2.5424,-2.5393,-2.5454,-2.5462,-2.5499,-2.5507,-2.5553,-2.5512,-2.5544,-2.5553,-2.5562,-2.5576,-2.5332,-2.5559,-2.5558,-2.5557,-2.5557,-2.5556,0,-2.5422,-2.5422,-2.5464,-2.5493,-2.5529,-2.5475,-2.5493,-2.5527,-2.5581,-2.5592,-2.5626,-2.5684,-2.5727,-2.5713,-2.5752,-2.5792,-2.5769,-2.5803,-2.5802,-2.5803,-2.5609,-2.5587,-2.5821,-2.5821,-2.5821,-2.5821,-2.5821,-2.5821,-2.5554,-2.564,-2.5622,-2.5712,-2.5711,-2.5769,-2.5784,-2.5801,-2.581,-2.5878,-2.5913,-2.5903,-2.5904,-2.5942,-2.5979,-2.5974,-2.5992,-2.6036,-2.6022,-2.5843,-2.5817,-2.5792,-2.5771,-2.6039,-2.604,-2.6212,-2.6214,-2.6215]},{"header":{"parameterUnit":"m.s-1","parameterCategory":1,"la1":30.2991,"la2":30.254,"lo1":-89.0895,"lo2":-89.0444,"dy":0.0017,"dx":0.0017,"nx":28,"ny":28,"refTime":"2024-12-07T09:00:00:Z","depth":0,"parameterNumber":3,"parameterNumberName":"V-component_of_WINDS"},"data":[0,0,0,0,0,0,0,0,0,0,0,0,0,0,0,0,0,0,0,0,0,0,0,0,0,0,0,0,0,0,0,0,0,0,0,0,0,0,0,0,0,0,0,0,0,0,0,0,0,0,0,0,0,0,0,0,0,0,-5.4192,-5.4193,0,-5.4284,-5.4285,-5.4286,-5.4196,-5.4192,-5.4189,-5.4185,-5.4275,-5.428,-5.4286,0,0,0,0,0,0,0,0,0,0,0,0,0,-5.3931,-5.3937,-5.4192,-5.4193,-5.4194,-5.4284,-5.4285,-5.4286,-5.4197,-5.4192,-5.4188,-5.4184,-5.4273,-5.428,-5.4287,0,0,0,0,0,0,0,0,0,0,0,0,0,-5.4036,-5.3938,-5.4191,-5.416,-5.4158,-5.4284,-5.4285,-5.4287,-5.4197,-5.4192,-5.4187,-5.4182,-5.4271,-5.4279,-5.4288,-5.4447,0,0,-5.4314,-5.4317,0,0,0,0,0,0,0,0,-5.403,-5.4046,-5.4164,-5.4162,-5.4161,-5.4223,-5.4226,-5.434,-5.4199,-5.4182,-5.4185,-5.4179,-5.4262,-5.4271,-5.4299,-5.4451,-5.4455,-5.4314,-5.432,-5.4323,-5.4326,0,0,0,0,0,0,0,-5.4023,-5.4041,-5.4228,-5.4165,-5.4164,-5.4139,-5.4148,-5.4247,-5.4251,-5.4183,-5.4177,-5.419,-5.426,-5.4292,-5.4301,-5.4456,-5.4314,-5.4322,-5.4327,-5.433,-5.4742,-5.4748,0,0,0,0,0,0,-5.402,-5.4036,-5.4225,-5.4231,-5.4081,-5.4148,-5.4159,-5.4208,-5.4249,-5.4251,-5.4194,-5.4185,-5.428,-5.4291,-5.4304,-5.4493,-5.4323,-5.4331,-5.4336,-5.4737,-5.4744,-5.475,0,0,0,0,0,0,-5.4015,-5.4038,-5.4221,-5.4132,-5.4153,-5.4159,-5.4215,-5.4213,-5.4245,-5.4257,-5.4257,-5.4226,-5.4276,-5.4292,-5.4412,-5.4495,-5.4335,-5.4343,-5.473,-5.4739,-5.4747,-5.4873,0,0,0,0,0,0,-5.4008,-5.4037,-5.4099,-5.4134,-5.4158,-5.4331,-5.422,-5.4219,-5.426,-5.4249,-5.4288,-5.4289,-5.4273,-5.44,-5.4421,-5.4504,-5.435,-5.4722,-5.4734,-5.4744,-5.4862,-5.4885,-5.4905,0,0,0,0,0,-5.3999,-5.413,-5.4102,-5.4126,-5.4237,-5.4336,-5.4349,-5.433,-5.4267,-5.4329,-5.4337,-5.4287,-5.4482,-5.4413,-5.4436,-5.4522,-5.4717,-5.4731,-5.4743,-5.4852,-5.488,-5.4905,0,0,0,0,0,0,-5.4102,-5.4134,-5.4104,-5.425,-5.4291,-5.432,-5.4397,-5.4361,-5.4419,-5.4406,-5.4378,-5.4387,-5.4515,-5.453,-5.4453,-5.4678,-5.4589,-5.4608,-5.4664,-5.4691,-5.4713,-5.4706,-5.4357,0,0,0,0,0,-5.4142,-5.4222,-5.4244,-5.4371,-5.4393,-5.4392,-5.4434,-5.4416,-5.4456,-5.4473,-5.449,-5.4529,-5.4599,-5.4646,-5.4711,-5.4863,-5.4869,-5.4934,-5.4955,-5.4973,-5.4989,-5.507,-5.5099,-5.4793,-5.4793,-5.4793,0,0,-5.4226,-5.4252,-5.4304,-5.4393,-5.4422,-5.4504,-5.4407,-5.4497,-5.4557,-5.4486,-5.4601,-5.4615,-5.4657,-5.4794,-5.4855,-5.4811,-5.5075,-5.499,-5.5004,-5.501,-5.5086,-5.5115,-5.5141,-5.4802,-5.48,-5.4799,0,0,-5.4419,-5.4448,-5.4557,-5.4588,-5.4635,-5.4633,-5.4659,-5.4694,-5.4701,-5.4817,-5.4765,-5.4834,-5.4956,-5.4988,-5.502,-5.5225,-5.5181,-5.5247,-5.5361,-5.544,-5.5464,-5.5485,-5.5558,-5.5584,-5.5263,-5.5263,-5.5263,0,-5.4516,-5.4639,-5.4617,-5.4711,-5.4751,-5.4692,-5.4801,-5.4832,-5.4897,-5.4925,-5.4874,-5.5025,-5.505,-5.5193,-5.5243,-5.5271,-5.5299,-5.5243,-5.5462,-5.5483,-5.5503,-5.5572,-5.5599,-5.5271,-5.527,-5.5269,-5.5268,0,-5.4755,-5.4841,-5.4923,-5.4989,-5.5038,-5.5139,-5.5131,-5.5182,-5.5159,-5.5162,-5.528,-5.5307,-5.5376,-5.5409,-5.5387,-5.5549,-5.552,-5.5467,-5.5377,-5.554,-5.5604,-5.5631,-5.5282,-5.5279,-5.5277,-5.5275,0,0,-5.5017,-5.507,-5.51,-5.5129,-5.5176,-5.5241,-5.5338,-5.5408,-5.5452,-5.5499,-5.5579,-5.5683,-5.5634,-5.567,-5.5651,-5.5721,-5.5881,-5.5658,-5.5659,-5.5699,-5.6061,-5.6101,-5.6132,-5.5852,-5.5857,-5.5861,-5.6057,0,-5.5212,-5.5384,-5.5367,-5.5529,-5.5607,-5.5552,-5.5636,-5.5673,-5.5679,-5.5744,-5.5748,-5.5823,-5.5752,-5.5774,-5.584,-5.5847,-5.5953,-5.5833,-5.5925,-5.5929,-5.5917,-5.6166,-5.6208,-5.6392,-5.6082,-5.6086,-5.6089,0,-5.5462,-5.552,-5.5691,-5.5725,-5.5757,-5.5834,-5.5896,-5.596,-5.6,-5.5998,-5.604,-5.6008,-5.6104,-5.6012,-5.6143,-5.6062,-5.6098,-5.6107,-5.6114,-5.6122,-5.6019,-5.618,-5.6451,-5.6478,-5.6129,-5.6126,-5.6123,0,-5.5636,-5.5755,-5.5873,-5.59,-5.5943,-5.5998,-5.6018,-5.6053,-5.6096,-5.6149,-5.6176,-5.6239,-5.6274,-5.6323,-5.6308,-5.6243,-5.6443,-5.6349,-5.6443,-5.6444,-5.6488,-5.6486,-5.6768,-5.6512,-5.6511,-5.6511,-5.651,0,-5.5856,-5.5962,-5.5952,-5.6024,-5.6142,-5.612,-5.6236,-5.6249,-5.628,-5.6352,-5.6307,-5.6376,-5.6353,-5.6419,-5.6408,-5.6519,-5.6534,-5.6535,-5.6531,-5.6539,-5.6539,-5.6563,-5.655,-5.6518,-5.6516,-5.6515,-5.6514,0,-5.607,-5.6067,-5.6192,-5.6223,-5.6233,-5.6318,-5.6343,-5.6411,-5.6412,-5.6504,-5.6524,-5.6526,-5.6602,-5.6593,-5.6677,-5.667,-5.6807,-5.6787,-5.6794,-5.679,-5.6884,-5.6876,-5.7192,-5.7232,-5.695,-5.6952,-5.6955,0,-5.621,-5.6291,-5.6331,-5.6378,-5.6402,-5.6477,-5.6521,-5.6502,-5.6549,-5.66,-5.6661,-5.6733,-5.679,-5.6914,-5.6922,-5.6986,-5.6967,-5.7074,-5.6977,-5.6983,-5.6969,-5.6965,-5.6972,-5.7093,-5.7097,-5.7099,-5.7101,0,-5.646,-5.6455,-5.652,-5.6586,-5.664,-5.669,-5.6736,-5.6776,-5.676,-5.6815,-5.6894,-5.6938,-5.7025,-5.7097,-5.7158,-5.7176,-5.7136,-5.7132,-5.7157,-5.7167,-5.7168,-5.7168,-5.6847,-5.7125,-5.7122,-5.7121,-5.7119,-5.7118,-5.6641,-5.6711,-5.675,-5.6825,-5.6857,-5.6901,-5.6965,-5.6975,-5.7041,-5.7112,-5.7095,-5.7184,-5.722,-5.7297,-5.7322,-5.7389,-5.735,-5.7387,-5.7396,-5.7405,-5.7416,-5.7157,-5.74,-5.7399,-5.7399,-5.7398,-5.7398,0,-5.6888,-5.6911,-5.698,-5.7046,-5.7104,-5.7063,-5.7111,-5.7162,-5.7241,-5.7279,-5.7337,-5.7426,-5.7496,-5.7509,-5.7575,-5.7626,-5.761,-5.7644,-5.764,-5.7645,-5.7448,-5.742,-5.7656,-5.7656,-5.7656,-5.7656,-5.7656,-5.7656,-5.7024,-5.7139,-5.7139,-5.7269,-5.729,-5.7378,-5.7408,-5.7448,-5.7478,-5.7581,-5.7639,-5.7648,-5.7675,-5.7743,-5.7804,-5.7806,-5.7832,-5.7874,-5.7869,-5.7684,-5.7659,-5.7634,-5.7607,-5.788,-5.788,-5.806,-5.8062,-5.8063]}]]